Powrót do katalogu

RASSVET-1 NO. 3

AktywnyŁącznośćSSO
NORAD 57170·PAYLOAD·🇷🇺 Russia
Ta nazwa satelity nie została jeszcze potwierdzona przez oficjalne źródła.

Wystrzelony Jun 27, 2023 z Vostochny Cosmodrome

Loading…

Następne Przeloty (najbliższe 24 godziny)

TLE

ŚwieżeSource: Space-Track

Epoka: Sep 14, 2026, 15:09 UTC

1 57170U 23091E   26257.63137008  .00006499  00000-0  25992-3 0  9993
2 57170  97.5020 319.4749 0010073 133.0157 227.1926 15.25398167177790

Śledź RASSVET-1 NO. 3 w czasie rzeczywistym z AllMySat

Download on the App Store